SCP
0 0 0 0 0 0 0 0 0 0 0 0 0 0 0 0 0 0 0 0 0 0
0 0 0 0 0 0 0 0 0 0 0 0 0 0 0 0 0 0 0 0 0 0
0 0 0 0 0 0 0 0 0 0 0 0 0 0 0 0 0 0 0 0 0 0
0 0 0 0 0 0 0 0 0 0 0 0 0 0 0 0 0 0 0 0 0 0
0 0 0 0 0 0 0 0 0 0 0 0 0 0 0 0 0 0 0 0 0 0
0 0 0 0 0 0 0 0 0 0 0 0 0 0 0 0 0 0 0 0 0 0
0 0 0 0 0 0 0 0 0 0 0 0 0 0 0 0 0 0 0 0 0 0
0 0 0 0 0 0 0 0 0 0 0 0 0 0 0 0 0 0 0 0 0 0
0 0 0 0 0 0 0 0 0 0 0 0 0 0 0 0 0 0 0 0 0 0
0 0 0 0 0 0 0 0 0 0 0 0 0 0 0 0 0 0 0 0 0 0
0 0 0 0 -0 0 0 -0 0 0 0 0 0 0 0 0 0 0 0 0 0 0
0 0 0 0 0 0 -0 -0 0 0 0 0 0 0 0 0 0 0 0 0 0 0
0 0 0 0 0 -0 -0 -0 -0 -0 -0 -0 0 0 0 0 0 0 0 0 0 0
0 0 0 0 0 0 -0 -0 -0 0 0 0 0 0 0 0 0 0 0 0 0 0
Wind_Speed_500mb
42 54 60 61 60 62 63 62 65 71 79 81 80 76 76 78 76 78 77 73 69 64
39 43 48 50 53 58 60 61 63 66 78 82 83 80 77 76 71 70 69 66 66 61
49 49 49 49 49 49 51 55 61 63 63 70 78 75 72 69 62 63 64 62 53 45
60 57 53 52 50 48 49 49 51 51 54 55 60 63 61 57 59 61 58 50 46 41
42 50 52 51 53 49 43 42 41 40 42 44 49 54 55 54 54 50 48 46 43 36
24 28 35 38 38 36 29 25 27 32 38 41 47 50 49 49 48 41 39 34 29 31
13 12 18 19 18 16 16 21 28 32 38 43 47 47 45 43 39 36 29 24 18 22
4 8 13 15 14 12 13 21 27 34 38 42 42 41 39 36 29 23 20 19 21 19
11 14 17 18 15 13 14 21 26 33 41 43 39 33 30 22 21 20 15 10 7 8
17 19 20 16 13 15 18 24 26 32 33 29 24 26 27 24 19 12 6 3 6 12
14 14 20 15 12 21 26 32 36 36 32 32 32 26 22 16 13 7 3 4 9 14
10 11 18 20 27 33 33 35 33 30 31 30 28 24 18 13 8 2 5 10 17 24
18 21 30 32 35 36 27 32 33 32 28 26 21 18 14 7 5 7 11 16 22 28
28 29 30 32 33 33 35 34 28 25 23 16 14 12 12 13 12 15 19 23 26 27
Wind_Direction_500mb
241 244 248 250 253 255 256 255 255 252 246 244 244 245 245 241 238 237 237 239 243 246
246 244 245 247 250 253 255 256 258 252 248 244 244 245 244 243 239 235 236 241 244 245
251 247 245 242 243 248 252 254 257 257 255 250 243 241 240 235 230 228 232 236 236 232
255 252 247 242 238 243 250 253 256 258 253 249 242 234 229 225 222 223 225 223 223 225
259 252 245 241 238 240 248 254 255 252 247 239 227 221 216 215 212 215 215 212 212 215
276 258 241 234 236 241 250 258 245 240 231 218 210 206 204 206 209 208 207 209 218 233
282 254 227 218 219 221 215 225 217 211 207 197 193 193 195 201 202 207 215 215 224 240
75 155 163 168 170 178 205 202 200 193 184 179 182 184 191 195 192 182 193 214 226 241
125 141 144 139 139 148 174 188 186 176 170 166 165 160 155 165 187 197 202 214 286 323
119 130 127 120 125 143 156 156 157 153 153 151 146 158 161 166 160 154 84 12 265 285
111 131 123 121 126 134 143 145 149 144 143 146 143 149 142 139 94 103 176 279 286 286
93 118 119 131 136 127 133 139 139 137 137 134 125 100 96 112 118 76 319 316 319 317
98 112 121 121 124 133 144 140 136 133 128 109 111 133 109 90 43 342 335 324 317 314
114 121 124 127 130 132 134 130 120 106 117 119 93 56 29 13 350 338 331 327 323 321
Wind_Speed_850mb
42 54 60 61 60 62 63 62 65 71 79 81 80 76 76 78 76 78 77 73 69 64
39 43 48 50 53 58 60 61 63 66 78 82 83 80 77 76 71 70 69 66 66 61
49 49 49 49 49 49 51 55 61 63 63 70 78 75 72 69 62 63 64 62 53 45
60 57 53 52 50 48 49 49 51 51 54 55 60 63 61 57 59 61 58 50 46 41
42 50 52 51 53 49 43 42 41 40 42 44 49 54 55 54 54 50 48 46 43 36
24 28 35 38 38 36 29 25 27 32 38 41 47 50 49 49 48 41 39 34 29 31
13 12 18 19 18 16 16 21 28 32 38 43 47 47 45 43 39 36 29 24 18 22
4 8 13 15 14 12 13 21 27 34 38 42 42 41 39 36 29 23 20 19 21 19
11 14 17 18 15 13 14 21 26 33 41 43 39 33 30 22 21 20 15 10 7 8
17 19 20 16 13 15 18 24 26 32 33 29 24 26 27 24 19 12 6 3 6 12
14 14 20 15 12 21 26 32 36 36 32 32 32 26 22 16 13 7 3 4 9 14
10 11 18 20 27 33 33 35 33 30 31 30 28 24 18 13 8 2 5 10 17 24
18 21 30 32 35 36 27 32 33 32 28 26 21 18 14 7 5 7 11 16 22 28
28 29 30 32 33 33 35 34 28 25 23 16 14 12 12 13 12 15 19 23 26 27
Wind_Direction_850mb
241 244 248 250 253 255 256 255 255 252 246 244 244 245 245 241 238 237 237 239 243 246
246 244 245 247 250 253 255 256 258 252 248 244 244 245 244 243 239 235 236 241 244 245
251 247 245 242 243 248 252 254 257 257 255 250 243 241 240 235 230 228 232 236 236 232
255 252 247 242 238 243 250 253 256 258 253 249 242 234 229 225 222 223 225 223 223 225
259 252 245 241 238 240 248 254 255 252 247 239 227 221 216 215 212 215 215 212 212 215
276 258 241 234 236 241 250 258 245 240 231 218 210 206 204 206 209 208 207 209 218 233
282 254 227 218 219 221 215 225 217 211 207 197 193 193 195 201 202 207 215 215 224 240
75 155 163 168 170 178 205 202 200 193 184 179 182 184 191 195 192 182 193 214 226 241
125 141 144 139 139 148 174 188 186 176 170 166 165 160 155 165 187 197 202 214 286 323
119 130 127 120 125 143 156 156 157 153 153 151 146 158 161 166 160 154 84 12 265 285
111 131 123 121 126 134 143 145 149 144 143 146 143 149 142 139 94 103 176 279 286 286
93 118 119 131 136 127 133 139 139 137 137 134 125 100 96 112 118 76 319 316 319 317
98 112 121 121 124 133 144 140 136 133 128 109 111 133 109 90 43 342 335 324 317 314
114 121 124 127 130 132 134 130 120 106 117 119 93 56 29 13 350 338 331 327 323 321